Time,TemperatureF,DewpointF,PressureIn,WindDirection,WindDirectionDegrees,WindSpeedMPH,WindSpeedGustMPH,Humidity,HourlyPrecipIn,Conditions,Clouds,dailyrainin,SoftwareType,DateUTC
2013-07-06 00:02:00,75.0,-99.9,29.99,ENE,76,6.0,12.0,-999,-99.99,,,-99.99,,2013-07-06 05:02:00,
2013-07-06 00:12:00,75.0,-99.9,29.99,ENE,65,6.0,7.0,-999,-99.99,,,-99.99,,2013-07-06 05:12:00,
2013-07-06 00:34:00,75.0,-99.9,29.99,NE,50,5.0,6.0,-999,-99.99,,,-99.99,,2013-07-06 05:34:00,
2013-07-06 00:43:00,74.0,-99.9,29.99,NNW,336,4.0,5.0,-999,-99.99,,,-99.99,,2013-07-06 05:43:00,
2013-07-06 00:53:00,74.0,-99.9,29.99,NW,313,5.0,6.0,-999,-99.99,,,-99.99,,2013-07-06 05:53:00,
2013-07-06 01:02:00,74.0,-99.9,29.99,NNW,333,4.0,5.0,-999,-99.99,,,-99.99,,2013-07-06 06:02:00,
2013-07-06 01:12:00,74.0,-99.9,29.99,NNE,25,4.0,5.0,-999,-99.99,,,-99.99,,2013-07-06 06:12:00,
2013-07-06 01:22:00,74.0,-99.9,29.99,NNE,13,4.0,6.0,-999,-99.99,,,-99.99,,2013-07-06 06:22:00,
2013-07-06 01:43:00,73.0,-99.9,29.99,North,358,4.0,5.0,-999,-99.99,,,-99.99,,2013-07-06 06:43:00,
2013-07-06 01:53:00,73.0,-99.9,29.99,North,6,4.0,5.0,-999,-99.99,,,-99.99,,2013-07-06 06:53:00,
2013-07-06 02:02:00,73.0,-99.9,29.99,North,3,5.0,7.0,-999,-99.99,,,-99.99,,2013-07-06 07:02:00,
2013-07-06 02:12:00,73.0,-99.9,29.99,NNE,25,7.0,8.0,-999,-99.99,,,-99.99,,2013-07-06 07:12:00,
2013-07-06 02:22:00,73.0,-99.9,29.98,NE,35,9.0,11.0,-999,-99.99,,,-99.99,,2013-07-06 07:22:00,
2013-07-06 02:33:00,73.0,-99.9,29.98,NE,45,9.0,11.0,-999,-99.99,,,-99.99,,2013-07-06 07:33:00,
2013-07-06 02:44:00,73.0,-99.9,29.98,NE,48,10.0,12.0,-999,-99.99,,,-99.99,,2013-07-06 07:44:00,
2013-07-06 02:52:00,73.0,-99.9,29.98,NE,39,9.0,11.0,-999,-99.99,,,-99.99,,2013-07-06 07:52:00,
2013-07-06 03:02:00,73.0,-99.9,29.98,NE,36,8.0,10.0,-999,-99.99,,,-99.99,,2013-07-06 08:02:00,
2013-07-06 03:12:00,74.0,-99.9,29.98,NNE,31,7.0,9.0,-999,-99.99,,,-99.99,,2013-07-06 08:12:00,
2013-07-06 03:34:00,73.0,-99.9,29.97,NE,39,9.0,10.0,-999,-99.99,,,-99.99,,2013-07-06 08:34:00,
2013-07-06 03:43:00,73.0,-99.9,29.97,NE,46,9.0,11.0,-999,-99.99,,,-99.99,,2013-07-06 08:43:00,
2013-07-06 03:54:00,73.0,-99.9,29.96,NE,42,9.0,12.0,-999,-99.99,,,-99.99,,2013-07-06 08:54:00,
2013-07-06 04:02:00,73.0,-99.9,29.96,NE,44,9.0,11.0,-999,-99.99,,,-99.99,,2013-07-06 09:02:00,
2013-07-06 04:11:00,74.0,-99.9,29.96,NE,52,9.0,10.0,-999,-99.99,,,-99.99,,2013-07-06 09:11:00,
2013-07-06 04:34:00,73.0,-99.9,29.97,NE,41,7.0,10.0,-999,-99.99,,,-99.99,,2013-07-06 09:34:00,
2013-07-06 04:53:00,73.0,-99.9,29.97,NE,39,8.0,11.0,-999,-99.99,,,-99.99,,2013-07-06 09:53:00,
2013-07-06 05:02:00,73.0,-99.9,29.97,NE,41,7.0,9.0,-999,-99.99,,,-99.99,,2013-07-06 10:02:00,
2013-07-06 05:12:00,73.0,-99.9,29.97,NE,37,11.0,12.0,-999,-99.99,,,-99.99,,2013-07-06 10:12:00,
2013-07-06 05:22:00,73.0,-99.9,29.97,NE,39,9.0,11.0,-999,-99.99,,,-99.99,,2013-07-06 10:22:00,
2013-07-06 05:33:00,73.0,-99.9,29.97,NNE,30,7.0,12.0,-999,-99.99,,,-99.99,,2013-07-06 10:33:00,
2013-07-06 05:43:00,73.0,-99.9,29.98,NE,35,6.0,10.0,-999,-99.99,,,-99.99,,2013-07-06 10:43:00,
2013-07-06 05:53:00,73.0,-99.9,29.98,NE,37,6.0,9.0,-999,-99.99,,,-99.99,,2013-07-06 10:53:00,
2013-07-06 06:01:00,73.0,-99.9,29.98,NE,42,9.0,11.0,-999,-99.99,,,-99.99,,2013-07-06 11:01:00,
2013-07-06 06:11:00,73.0,-99.9,29.97,NE,45,10.0,11.0,-999,-99.99,,,-99.99,,2013-07-06 11:11:00,
2013-07-06 06:33:00,73.0,-99.9,29.98,NE,45,9.0,11.0,-999,-99.99,,,-99.99,,2013-07-06 11:33:00,
2013-07-06 06:43:00,73.0,-99.9,29.98,NE,37,8.0,11.0,-999,-99.99,,,-99.99,,2013-07-06 11:43:00,
2013-07-06 06:53:00,73.0,-99.9,29.98,NNE,30,9.0,11.0,-999,-99.99,,,-99.99,,2013-07-06 11:53:00,
2013-07-06 07:01:00,73.0,-99.9,29.98,NE,39,7.0,9.0,-999,-99.99,,,-99.99,,2013-07-06 12:01:00,
2013-07-06 07:12:00,73.0,-99.9,29.98,NE,45,14.0,15.0,-999,-99.99,,,-99.99,,2013-07-06 12:12:00,
2013-07-06 07:33:00,73.0,-99.9,30.01,SW,223,5.0,8.0,-999,-99.99,,,-99.99,,2013-07-06 12:33:00,
2013-07-06 07:43:00,73.0,-99.9,30.00,North,354,4.0,6.0,-999,-99.99,,,-99.99,,2013-07-06 12:43:00,
2013-07-06 07:52:00,73.0,-99.9,30.00,NNE,15,6.0,6.0,-999,-99.99,,,-99.99,,2013-07-06 12:52:00,
2013-07-06 08:01:00,73.0,-99.9,30.00,North,353,7.0,8.0,-999,-99.99,,,-99.99,,2013-07-06 13:01:00,
2013-07-06 08:12:00,73.0,-99.9,30.00,North,8,5.0,6.0,-999,-99.99,,,-99.99,,2013-07-06 13:12:00,
2013-07-06 08:33:00,73.0,-99.9,30.00,NNW,337,7.0,8.0,-999,-99.99,,,-99.99,,2013-07-06 13:33:00,
2013-07-06 08:43:00,73.0,-99.9,30.01,WNW,283,5.0,6.0,-999,-99.99,,,-99.99,,2013-07-06 13:43:00,
2013-07-06 08:52:00,73.0,-99.9,30.01,West,267,9.0,14.0,-999,-99.99,,,-99.99,,2013-07-06 13:52:00,
2013-07-06 09:02:00,73.0,-99.9,30.02,West,279,8.0,12.0,-999,-99.99,,,-99.99,,2013-07-06 14:02:00,
2013-07-06 09:12:00,72.0,-99.9,30.03,WNW,287,6.0,12.0,-999,-99.99,,,-99.99,,2013-07-06 14:12:00,
2013-07-06 09:22:00,72.0,-99.9,30.03,WNW,291,6.0,7.0,-999,-99.99,,,-99.99,,2013-07-06 14:22:00,
2013-07-06 09:34:00,72.0,-99.9,30.03,West,265,3.0,6.0,-999,-99.99,,,-99.99,,2013-07-06 14:34:00,
2013-07-06 09:43:00,72.0,-99.9,30.03,NNW,344,2.0,5.0,-999,-99.99,,,-99.99,,2013-07-06 14:43:00,
2013-07-06 09:53:00,72.0,-99.9,30.03,North,358,2.0,4.0,-999,-99.99,,,-99.99,,2013-07-06 14:53:00,
2013-07-06 10:02:00,72.0,-99.9,30.03,North,7,4.0,5.0,-999,-99.99,,,-99.99,,2013-07-06 15:02:00,
2013-07-06 10:12:00,73.0,-99.9,30.03,NNE,16,4.0,5.0,-999,-99.99,,,-99.99,,2013-07-06 15:12:00,
2013-07-06 10:34:00,73.0,-99.9,30.03,NNE,14,3.0,4.0,-999,-99.99,,,-99.99,,2013-07-06 15:34:00,
2013-07-06 10:43:00,74.0,-99.9,30.03,NNE,28,4.0,5.0,-999,-99.99,,,-99.99,,2013-07-06 15:43:00,
2013-07-06 10:53:00,74.0,-99.9,30.04,NE,41,4.0,6.0,-999,-99.99,,,-99.99,,2013-07-06 15:53:00,
2013-07-06 11:09:00,74.0,-99.9,30.04,NE,45,5.0,8.0,-999,-99.99,,,-99.99,,2013-07-06 16:09:00,
2013-07-06 11:50:00,74.0,-99.9,30.03,NE,46,6.0,8.0,-999,-99.99,,,-99.99,,2013-07-06 16:50:00,
2013-07-06 12:02:00,74.0,-99.9,30.03,ENE,63,6.0,7.0,-999,-99.99,,,-99.99,,2013-07-06 17:02:00,
2013-07-06 12:13:00,75.0,-99.9,30.03,NNE,22,7.0,8.0,-999,-99.99,,,-99.99,,2013-07-06 17:13:00,
2013-07-06 12:46:00,75.0,-99.9,30.03,ENE,67,4.0,5.0,-999,-99.99,,,-99.99,,2013-07-06 17:46:00,
2013-07-06 13:01:00,75.0,-99.9,30.03,ENE,73,3.0,5.0,-999,-99.99,,,-99.99,,2013-07-06 18:01:00,
2013-07-06 13:10:00,75.0,-99.9,30.03,East,94,5.0,6.0,-999,-99.99,,,-99.99,,2013-07-06 18:10:00,
2013-07-06 13:16:00,76.0,-99.9,30.02,East,90,6.0,7.0,-999,-99.99,,,-99.99,,2013-07-06 18:16:00,
2013-07-06 13:39:00,76.0,-99.9,30.01,ESE,113,7.0,9.0,-999,-99.99,,,-99.99,,2013-07-06 18:39:00,
2013-07-06 14:02:00,76.0,-99.9,30.01,ESE,106,8.0,10.0,-999,-99.99,,,-99.99,,2013-07-06 19:02:00,
2013-07-06 14:11:00,76.0,-99.9,30.01,SE,124,8.0,11.0,-999,-99.99,,,-99.99,,2013-07-06 19:11:00,
2013-07-06 14:17:00,76.0,-99.9,30.01,SE,133,6.0,10.0,-999,-99.99,,,-99.99,,2013-07-06 19:17:00,
2013-07-06 14:26:00,76.0,-99.9,30.01,SE,130,6.0,10.0,-999,-99.99,,,-99.99,,2013-07-06 19:26:00,
2013-07-06 14:50:00,76.0,-99.9,30.00,ESE,119,7.0,9.0,-999,-99.99,,,-99.99,,2013-07-06 19:50:00,
2013-07-06 15:01:00,76.0,-99.9,30.00,ESE,117,7.0,9.0,-999,-99.99,,,-99.99,,2013-07-06 20:01:00,
2013-07-06 15:19:00,76.0,-99.9,29.99,ESE,113,6.0,7.0,-999,-99.99,,,-99.99,,2013-07-06 20:19:00,
2013-07-06 15:27:00,77.0,-99.9,29.99,ESE,113,4.0,8.0,-999,-99.99,,,-99.99,,2013-07-06 20:27:00,
2013-07-06 16:15:00,77.0,-99.9,29.98,East,90,4.0,5.0,-999,-99.99,,,-99.99,,2013-07-06 21:15:00,
2013-07-06 16:25:00,78.0,-99.9,29.98,East,93,4.0,5.0,-999,-99.99,,,-99.99,,2013-07-06 21:25:00,
2013-07-06 16:38:00,78.0,-99.9,29.98,East,93,4.0,5.0,-999,-99.99,,,-99.99,,2013-07-06 21:38:00,
2013-07-06 16:50:00,78.0,-99.9,29.98,SE,127,1.0,3.0,-999,-99.99,,,-99.99,,2013-07-06 21:50:00,
2013-07-06 17:01:00,79.0,-99.9,29.98,ESE,106,-999.0,1.0,-999,-99.99,,,-99.99,,2013-07-06 22:01:00,
2013-07-06 17:20:00,78.0,-99.9,29.98,East,96,1.0,2.0,-999,-99.99,,,-99.99,,2013-07-06 22:20:00,
2013-07-06 17:50:00,78.0,-99.9,29.98,SE,133,1.0,2.0,-999,-99.99,,,-99.99,,2013-07-06 22:50:00,
2013-07-06 18:02:00,78.0,-99.9,29.98,SSE,158,1.0,2.0,-999,-99.99,,,-99.99,,2013-07-06 23:02:00,
2013-07-06 18:09:00,78.0,-99.9,29.98,SSE,150,2.0,3.0,-999,-99.99,,,-99.99,,2013-07-06 23:09:00,
2013-07-06 18:27:00,78.0,-99.9,29.98,South,169,1.0,2.0,-999,-99.99,,,-99.99,,2013-07-06 23:27:00,
2013-07-06 18:53:00,78.0,-99.9,29.98,SE,146,5.0,8.0,-999,-99.99,,,-99.99,,2013-07-06 23:53:00,
2013-07-06 19:13:00,78.0,-99.9,29.98,SSE,157,6.0,11.0,-999,-99.99,,,-99.99,,2013-07-07 00:13:00,
2013-07-06 20:01:00,78.0,-99.9,29.99,SSE,148,4.0,8.0,-999,-99.99,,,-99.99,,2013-07-07 01:01:00,
2013-07-06 20:11:00,78.0,-99.9,29.99,SSE,155,3.0,8.0,-999,-99.99,,,-99.99,,2013-07-07 01:11:00,
2013-07-06 20:17:00,78.0,-99.9,29.99,SE,144,4.0,8.0,-999,-99.99,,,-99.99,,2013-07-07 01:17:00,
2013-07-06 20:51:00,78.0,-99.9,30.00,SE,134,8.0,11.0,-999,-99.99,,,-99.99,,2013-07-07 01:51:00,
2013-07-06 21:11:00,77.0,-99.9,30.00,SE,131,9.0,11.0,-999,-99.99,,,-99.99,,2013-07-07 02:11:00,
2013-07-06 21:17:00,77.0,-99.9,30.01,SE,131,9.0,12.0,-999,-99.99,,,-99.99,,2013-07-07 02:17:00,
2013-07-06 21:23:00,77.0,-99.9,30.01,SE,134,8.0,12.0,-999,-99.99,,,-99.99,,2013-07-07 02:23:00,
2013-07-06 21:56:00,77.0,-99.9,30.01,SE,127,10.0,13.0,-999,-99.99,,,-99.99,,2013-07-07 02:56:00,
2013-07-06 22:15:00,77.0,-99.9,30.02,SE,125,8.0,12.0,-999,-99.99,,,-99.99,,2013-07-07 03:15:00,
2013-07-06 22:34:00,77.0,-99.9,30.02,SE,130,9.0,13.0,-999,-99.99,,,-99.99,,2013-07-07 03:34:00,
2013-07-06 22:45:00,78.0,-99.9,30.02,SE,124,8.0,11.0,-999,-99.99,,,-99.99,,2013-07-07 03:45:00,
2013-07-06 22:58:00,78.0,-99.9,30.02,ESE,119,9.0,10.0,-999,-99.99,,,-99.99,,2013-07-07 03:58:00,
2013-07-06 23:01:00,78.0,-99.9,30.02,SE,127,7.0,11.0,-999,-99.99,,,-99.99,,2013-07-07 04:01:00,
2013-07-06 23:02:00,78.0,-99.9,30.03,ESE,123,9.0,11.0,-999,-99.99,,,-99.99,,2013-07-07 04:02:00,
2013-07-06 23:11:00,78.0,-99.9,30.03,SE,135,7.0,11.0,-999,-99.99,,,-99.99,,2013-07-07 04:11:00,
2013-07-06 23:21:00,78.0,-99.9,30.03,SE,135,7.0,11.0,-999,-99.99,,,-99.99,,2013-07-07 04:21:00,
2013-07-06 23:31:00,78.0,-99.9,30.03,SE,130,9.0,12.0,-999,-99.99,,,-99.99,,2013-07-07 04:31:00,
2013-07-06 23:42:00,78.0,-99.9,30.03,SE,128,8.0,11.0,-999,-99.99,,,-99.99,,2013-07-07 04:42:00,
2013-07-06 23:52:00,78.0,-99.9,30.03,SE,127,7.0,11.0,-999,-99.99,,,-99.99,,2013-07-07 04:52:00,